Bloomington, IL (61701)

1:15 PM CST on February 09, 2016 (GMT -0600)
Across from IWU | | Change Station
CLOSE
Current Station
Personal Weather Station
Location: Bloomington, IL
Elevation: 810 ft
Nearby Weather Stations
Active Advisory: Special Statement Active Notice: Local Storm Report

Elev 810 ft 40.49 °N, 88.99 °W | Updated 5 minutes ago

Overcast
Overcast
18.2 °F
Feels Like 12 °F
N
4.0
Wind Variable Wind from North
Gusts 13.0 mph

Today
High -- | Low -- °F
--% Chance of Precip.
Yesterday
High -- | Low -- °F
Precip. -- in
Pressure 29.97 in
Visibility 3.0 miles
Clouds Few 1600 ft
Overcast 2300 ft
Windchill 12 °F
Dew Point 12 °F
Humidity 76%
Rainfall 0.00 in
Snow Depth Not available.
6:57 AM 5:23 PM
New Moon, 2% visible
METAR KBMI 091856Z 32018G22KT 3SM -SN FEW016 OVC023 M08/M12 A2989 RMK AO2 T10771122 P0000 SLP149
Pressure 29.97 in
Visibility 3.0 miles
Clouds Few 1600 ft
Overcast 2300 ft
Windchill 12 °F
Dew Point 12 °F
Humidity 76%
Rainfall 0.00 in
Snow Depth Not available.
6:57 AM 5:23 PM
New Moon, 2% visible
METAR KBMI 091856Z 32018G22KT 3SM -SN FEW016 OVC023 M08/M12 A2989 RMK AO2 T10771122 P0000 SLP149

10-Day Weather Forecast

Almanac

Astronomy

Feb. 09, 2016 Rise Set
Actual Time
Civil Twilight
Nautical Twilight
Astronomical Twilight
Moon
Length of Visible Light
Length of Day
Tomorrow will be .
, % of the Moon is Illuminated

Today's Extremes

State Highs State Lows

Community

WunderPhotos

Upload Photos

1,891,666 photos uploaded!

WunderBlog® & News

Nearby

Air Quality

  Air Quality AQ Index Pollutant
Not available.

Snow Depth

Station Depth Elevation

Earthquake Activity

City Distance Mag. Time & Date
Minimum magnitude displayed is 2.5.

Coastal Water Temperatures

Place Temperature

Stations

Nearby Weather Stations

Station Location Temp. Windchill Dew Point Humidity Wind Precip. Elev Updated Type
                   

Watches & Warnings

Special Statement
Issued: 6:52 AM CST Feb. 9, 2016 – National Weather Service

Scattered snow showers will continue across central and southeast
Illinois into this afternoon. While accumulations will remain
minor... there will be slick spots on many area roadways.
Motorists are advised to drive with caution. Slow down and plan on
extra time to arrive at your destination today.


Onton


652 am CST Tue Feb 9 2016

Scattered snow showers will continue across central and southeast
Illinois into this afternoon. While accumulations will remain
minor... there will be slick spots on many area roadways.
Motorists are advised to drive with caution. Slow down and plan on
extra time to arrive at your destination today.


Onton

652 am CST Tue Feb 9 2016

Scattered snow showers will continue across central and southeast
Illinois into this afternoon. While accumulations will remain
minor... there will be slick spots on many area roadways.
Motorists are advised to drive with caution. Slow down and plan on
extra time to arrive at your destination today.


Onton